User: anonymous   Login
Location: Azul
(36.7830°S, 59.8500°W)
Time: 05:35:50
(UTC-03:00)
Language:

BEESAT - Orbit

View from above orbital plane
View from above orbital plane
View from above satellite
View from above satellite

Ground track
Ground track

The orbit data is extracted from the following two-line orbital elements,

1 35933U 09051C   24259.96773565  .00003993  00000-0  85468-3 0  9996
2 35933  98.4494 145.8482 0006859  58.3122 301.8744 14.59302373795863
Epoch (UTC): 15 September 2024 23:13:32
Eccentricity: 0.0006859
inclination: 98.4494°
perigee height: 690 km
apogee height: 700 km
right ascension of ascending node: 145.8482°
argument of perigee: 58.3122°
revolutions per day: 14.59302373
mean anomaly at epoch: 301.8744°
orbit number at epoch: 79586

The dashed part of the orbit path shows where the satellite is in the earth's shadow,  

DLR